STARLINK-32151, 60299

Orbit data source: Space-Track

STARLINK-32151, 60299 is a payload satellite owned by SpaceX/Seattle (US) in LEO that was launched on Sun, 28 Jul 2024 UTC via an FALCON 9 launch vehicle from the Air Force Eastern Test Range (AFETR). Payload-class satellites include a variety of spacecraft equipped with specific instruments for various scientific and technological missions. These include communications satellites like Starlink; space stations such as the ISS; scientific satellites like the Hubble; Earth observation satellites from companies like Planet Labs, Umbra, and HawkEye 360; GPS; miniature CubeSats for education and research; and military/defense satellites.

Loading next visibility...
Identifier
60299, 2024-132X
Orbit
LEO
Last TLE update
1 day ago
Origin
Manufacturer
SpaceX/Seattle
Mission
Operational spacecraft
Bus & Motor
STARLINK V2M, Unknown motor
Mass
730 kg wet, ~700 kg dry
Launch date (UTC)
2024-07-28 (11 months ago)
Launch vehicle
FALCON 9
Launch site
Air Force Eastern Test Range (AFETR)
Object type
Payload
Rocket body
Debris
Shape & HBR
Unknown
Radar Cross Section
Large (>1 m²)

Expand to show TLE details & history

TLE from 1 day ago
0 STARLINK-32151
1 60299U 24132X   25191.08933300  .00001147  00000-0  50852-4 0  9999
2 60299  53.1599  70.8445 0001206  80.7195 279.3942 15.30194043 54811
Epoch: 2025-07-10T02:08Z
TLE epoch observation values (Epoch: 2025-07-10T02:08:38.371Z)
Latitude
-0.00002°
Longitude
110.42399°
Altitude
475.998 km
Speed
7.629 km/s
True Right ascension
04h 43m 22s
True Declination
0° 00' 00"
Sunlit
Object was in daylight at epoch
Visualization orbit readout
Latitude
46.21517°
Longitude
-127.06395°
Altitude
479.469 km
Speed
7.632 km/s
Apparent Right ascension
12h 22m 16s
Apparent Declination
5° 07' 14"
Sunlit
Object is in daylight
Visualization observer readout
Local Sidereal Time
23:52:02
Azimuth
349.433° N
Elevation
-44.429°
Doppler factor
1
Orbital elements
Apogee altitude
476.316 km
Perigee altitude
474.663 km
Semi-major axis
6,853.626 km
Eccentricity
0.00012
Inclination
53.1599°
RAAN
70.8445°
Arg. of periapsis
80.7195°
True anomaly
Unknown
Mean anomaly
279.3942°
Eccentric anomaly
Unknown
Mean motion
3.82527 °/min
Orbital period
94.11 mins
BSTAR
0.000050852
Loading maneuver chart data...
Loading SW <> Apogee altitude chart data...
Loading historical data...
Loading historical data...
Loading historical data...
Loading historical data...
Loading historical data...
Loading historical data...
Loading historical data...

STARLINK-32151 Visibility forecast

Observer location: undefined°, undefined°

Span
Click to sort rows by Start time (UTC) header in descending order
Start Az.
Max El. time (UTC)
Max El. Az.
Max El.
End time (UTC)
End Az.
5 mins2025-07-11 17:28:59.276Z185.285° SSW2025-07-11 17:31:59.276Z126.169° SE22.952°2025-07-11 17:33:59.276Z83.597° E
5 mins2025-07-11 19:07:59.276Z274.839° WNW2025-07-11 19:09:59.276Z343.705° N31.323°2025-07-11 19:12:59.276Z37.087° NE
4 mins2025-07-12 00:04:59.276Z349.39° N2025-07-12 00:06:59.276Z42.734° NE23.864°2025-07-12 00:08:59.276Z81.934° E
5 mins2025-07-12 01:42:59.276Z279.242° WNW2025-07-12 01:44:59.276Z203.762° SW32.652°2025-07-12 01:47:59.276Z154.268° SSE
|